Location: Fort Wayne
(41.1310°N, 85.1290°W)
Time: 08:20:51
(UTC-04:00)

Cosmos 1953 - Visible Passes

Search period start: 28 July 2014 00:00
Search period end: 07 August 2014 00:00
Orbit: 551 x 570 km, 82.5° (Epoch: 27 July)

Date Brightness Start Highest point End Pass type
(mag) Time Alt. Az. Time Alt. Az. Time Alt. Az.
28 Jul 3.1 03:35:50 45° E 03:35:56 45° E 03:39:53 10° NNE visible
28 Jul 4.4 05:11:47 13° W 05:12:51 14° WNW 05:15:01 10° NW visible
29 Jul 2.9 03:35:10 54° E 03:35:10 54° E 03:39:03 10° NNE visible
29 Jul 4.6 05:11:07 11° W 05:12:01 12° WNW 05:13:30 10° NW visible
30 Jul 2.8 03:34:29 62° ENE 03:34:29 62° ENE 03:38:11 10° NNE visible
31 Jul 2.8 03:33:48 62° NNE 03:33:48 62° NNE 03:37:18 10° N visible
01 Aug 2.9 03:33:05 55° N 03:33:05 55° N 03:36:23 10° N visible
02 Aug 3.2 03:32:21 47° NNW 03:32:21 47° NNW 03:35:27 10° N visible
03 Aug 3.5 03:31:37 39° NNW 03:31:37 39° NNW 03:34:29 10° N visible
04 Aug 5.3 01:54:54 11° ENE 01:54:54 11° ENE 01:55:11 10° ENE visible
04 Aug 3.7 03:30:51 33° NNW 03:30:51 33° NNW 03:33:30 10° N visible
05 Aug 5.2 01:54:08 12° ENE 01:54:08 12° ENE 01:54:45 10° NE visible
05 Aug 4.0 03:30:05 28° NNW 03:30:05 28° NNW 03:32:29 10° N visible
06 Aug 5.1 01:53:21 13° NE 01:53:21 13° NE 01:54:10 10° NE visible
06 Aug 4.2 03:29:18 24° NW 03:29:18 24° NW 03:31:27 10° NNW visible
